#timestamp,LO_Frequency,Hit,StdDev 
1632528015.4,286047002.8,Y
1632528035.3,286047002.8,P
1632528055.1,286047002.2,N
1632528075.9,286047000.3,N
1632528095.7,286046998.5,N
1632528115.5,286047000.4,N
1632528135.4,286047000.7,N
1632528155.2,286047000.9,N
1632528175.0,286047000.1,N
1632528175.9,286047000.1,N
1632528195.8,286047002.5,N
1632528215.6,286047000.6,N
1632528235.5,286047002.7,N
1632528255.3,286046999.9,N
1632528275.1,286047000.0,N
1632528295.9,286047000.9,N
1632528315.7,286047000.0,N
1632528335.5,286047000.0,N
1632528355.4,286047000.4,N
1632528375.2,286046999.9,N
1632528395.1,286047000.2,N
1632528396.0,286047000.2,N
1632528415.8,286046999.8,N
1632528435.6,286046999.9,N
1632528455.5,286047000.6,N
1632528475.3,286047000.1,N
1632528495.1,286047000.5,N
1632528515.9,286047002.8,N
1632528535.7,286046999.9,N
1632528555.6,286046999.9,N
1632528575.4,286047000.2,N
1632528595.2,286047000.9,N
1632528615.1,286047000.5,N
1632528616.0,286047000.5,N
1632528635.8,286046998.2,N
1632528655.7,286047000.9,N
1632528675.5,286047000.5,N
1632528695.3,286046999.8,N
1632528715.2,286047000.9,N
1632528735.0,286047000.1,N
1632528735.9,286047000.1,N
1632528755.7,286047000.5,N
1632528775.6,286047000.6,N
1632528795.4,286047000.0,N
1632528815.3,286047000.6,N
1632528835.1,286046999.8,N
1632528836.0,286046999.8,N
1632528855.8,286047002.6,Y
1632528875.7,286047002.2,P
1632528895.5,286047002.4,N
1632528915.4,286047002.0,N
1632528935.2,286047001.9,N
1632528955.0,286047001.9,N
1632528955.9,286047001.9,N
1632528975.8,286047002.3,Y
1632528995.6,286047001.1,P
1632529015.4,286047000.8,N
1632529035.3,286047000.3,N
1632529055.1,286047002.3,Y
1632529075.9,286047001.2,P
1632529095.7,286046999.3,P
1632529115.5,286046999.0,N
1632529135.4,286046999.6,N
1632529155.2,286046996.6,Y
1632529175.1,286046996.5,P
1632529176.0,286046996.5,N
1632529195.8,286046999.2,N
1632529215.6,286046999.6,N
1632529235.5,286046998.7,N
1632529255.3,286046999.0,N
1632529275.2,286046999.1,N
1632529295.9,286046998.6,N
1632529315.7,286046999.1,N
1632529335.6,286046999.2,N
1632529355.4,286046999.4,N
1632529375.2,286046999.3,N
1632529395.1,286046996.5,Y
1632529396.0,286046996.5,P
1632529415.8,286046998.4,N
1632529435.7,286046999.0,N
1632529455.6,286046999.5,N
1632529475.4,286046998.7,N
1632529495.2,286046999.3,N
1632529515.1,286046999.5,N
1632529516.0,286046999.5,N
1632529535.8,286046998.8,N
1632529555.6,286046999.4,N
1632529575.5,286046999.4,N
1632529595.3,286046998.8,N
1632529615.2,286046998.2,N
1632529635.9,286046998.7,N
1632529655.7,286046998.4,N
1632529675.6,286046998.3,N
1632529695.4,286046998.7,N
1632529715.3,286046998.2,N
1632529735.1,286046999.0,N
1632529736.0,286046999.0,N
1632529755.8,286047000.7,N
1632529775.7,286046998.5,N
1632529795.5,286047001.2,N
1632529815.3,286046998.6,N
1632529835.2,286047000.9,N
1632529855.0,286047001.2,N
1632529855.9,286047001.2,N
1632529875.8,286046998.1,N
1632529895.6,286046998.1,N
1632529915.4,286046998.1,N
1632529935.3,286047001.2,N
1632529955.1,286047001.2,N
1632529975.9,286047000.5,N
1632529995.7,286047000.2,N
1632530015.5,286046999.9,N
1632530035.4,286047002.4,N
1632530055.2,286046999.9,N
1632530075.0,286047000.8,N
1632530075.9,286047000.8,N
1632530095.8,286047000.8,N
1632530115.6,286046998.4,N
1632530135.5,286046998.7,N
1632530155.3,286046998.5,N
1632530175.1,286046998.8,N
1632530195.9,286046998.4,N
1632530215.7,286046998.2,N
1632530235.6,286047001.2,N
1632530255.4,286046998.3,N
1632530275.2,286046998.8,N
1632530295.1,286046998.3,N
1632530296.0,286046998.3,N
1632530315.8,286046998.4,N
1632530335.7,286046999.5,N
1632530355.5,286046996.6,N
1632530375.3,286046997.0,N
1632530395.2,286046998.8,N
1632530415.0,286046997.1,N
1632530415.9,286046997.1,N
1632530435.8,286046999.5,N
1632530455.6,286046999.2,N
1632530475.4,286046998.4,N
1632530495.3,286046999.0,N
1632530515.1,286046998.4,N
1632530535.8,286046999.0,N
1632530555.7,286047001.1,N
1632530575.5,286047000.7,N
1632530595.4,286047001.0,N
1632530615.2,286046998.3,N
1632530635.0,286046998.8,N
1632530635.9,286046998.8,N
1632530655.8,286046998.3,N
1632530675.6,286046999.0,N
1632530695.5,286046998.6,N
1632530715.3,286047001.2,N
1632530735.1,286046998.8,N
1632530755.9,286046999.1,N
1632530775.7,286046998.7,N
1632530795.6,286046996.5,Y
1632530815.4,286047001.1,P
1632530835.2,286047000.6,N
1632530855.1,286046999.9,N
1632530856.0,286046999.9,N
1632530875.8,286047001.0,N
1632530895.7,286047000.4,N
1632530915.5,286047000.9,N
1632530935.3,286046999.9,N
1632530955.2,286047000.2,N
1632530975.0,286047000.4,N
1632530975.9,286047000.4,N
1632530995.7,286046998.1,Y
1632531015.6,286047000.8,P
1632531035.4,286046999.1,P
1632531055.3,286046999.6,N
1632531075.1,286046998.9,N
1632531095.8,286046997.1,Y
1632531115.7,286046999.5,P
1632531135.5,286046997.7,P
1632531155.4,286046997.7,N
1632531175.2,286046995.2,Y
1632531195.0,286046998.9,P
1632531195.9,286046998.9,P
1632531215.8,286046997.8,P
1632531235.6,286046995.4,Y
1632531255.5,286046996.5,P
1632531275.3,286046997.4,N
1632531295.1,286046997.3,P
1632531315.9,286046997.8,Y
1632531335.7,286047001.2,P
1632531355.5,286047000.5,N
1632531375.4,286046999.8,N
1632531395.2,286047003.7,N
1632531415.1,286047003.5,N
1632531416.0,286047003.5,N
1632531435.8,286047004.0,N
1632531455.6,286047003.6,N
1632531505.5,286047003.2,E
1632531515.4,286047004.1,N
1632531535.3,286046999.9,P
1632531555.1,286047000.4,N
1632531575.9,286047000.0,N
1632531595.7,286047000.0,N
